<?xml version="1.0" encoding="UTF-8" standalone="no" ?>
<gpx xmlns="http://www.topografix.com/GPX/1/1" xmlns:xsi="http://www.w3.org/2001/XMLSchema-instance" xsi:schemaLocation="http://www.topografix.com/GPX/1/1 http://www.topografix.com/GPX/1/1/gpx.xsd" version="1.1" creator="VisuGPX - https://www.visugpx.com">
  <metadata>
    <name>messimy test boucle cool</name>
    <desc><![CDATA[test de boucle enducool ]]></desc>
  </metadata>
  <trk>
    <name><![CDATA[Messimy_test_madone]]></name>
    <trkseg>
      <trkpt lat="45.70149" lon="4.68732">
        <ele>314.2</ele>
        <time>1970-01-01T00:00:00Z</time>
      </trkpt>
      <trkpt lat="45.70006" lon="4.68702">
        <ele>317.5</ele>
        <time>1970-01-01T00:00:00Z</time>
      </trkpt>
      <trkpt lat="45.69929" lon="4.68726">
        <ele>317.6</ele>
        <time>1970-01-01T00:00:00Z</time>
      </trkpt>
      <trkpt lat="45.69973" lon="4.68579">
        <ele>319.6</ele>
        <time>1970-01-01T00:00:00Z</time>
      </trkpt>
      <trkpt lat="45.6999" lon="4.68435">
        <ele>324.8</ele>
        <time>1970-01-01T00:00:00Z</time>
      </trkpt>
      <trkpt lat="45.69966" lon="4.68269">
        <ele>331.5</ele>
        <time>1970-01-01T00:00:00Z</time>
      </trkpt>
      <trkpt lat="45.70057" lon="4.67983">
        <ele>344.5</ele>
        <time>1970-01-01T00:00:00Z</time>
      </trkpt>
      <trkpt lat="45.70097" lon="4.68031">
        <ele>345.4</ele>
        <time>1970-01-01T00:00:00Z</time>
      </trkpt>
      <trkpt lat="45.70151" lon="4.67951">
        <ele>346.4</ele>
        <time>1970-01-01T00:00:00Z</time>
      </trkpt>
      <trkpt lat="45.70383" lon="4.67231">
        <ele>357.5</ele>
        <time>1970-01-01T00:00:00Z</time>
      </trkpt>
      <trkpt lat="45.70453" lon="4.67191">
        <ele>356.5</ele>
        <time>1970-01-01T00:00:00Z</time>
      </trkpt>
      <trkpt lat="45.7058" lon="4.67047">
        <ele>370.8</ele>
        <time>1970-01-01T00:00:00Z</time>
      </trkpt>
      <trkpt lat="45.7058" lon="4.67047">
        <ele>370.8</ele>
        <time>1970-01-01T00:00:00Z</time>
      </trkpt>
      <trkpt lat="45.70654" lon="4.67035">
        <ele>378.7</ele>
        <time>1970-01-01T00:00:00Z</time>
      </trkpt>
      <trkpt lat="45.70813" lon="4.66779">
        <ele>403.5</ele>
        <time>1970-01-01T00:00:00Z</time>
      </trkpt>
      <trkpt lat="45.71003" lon="4.66657">
        <ele>413</ele>
        <time>1970-01-01T00:00:00Z</time>
      </trkpt>
      <trkpt lat="45.71003" lon="4.66657">
        <ele>413</ele>
        <time>1970-01-01T00:00:00Z</time>
      </trkpt>
      <trkpt lat="45.71047" lon="4.66639">
        <ele>415.3</ele>
        <time>1970-01-01T00:00:00Z</time>
      </trkpt>
      <trkpt lat="45.71149" lon="4.66644">
        <ele>417.5</ele>
        <time>1970-01-01T00:00:00Z</time>
      </trkpt>
      <trkpt lat="45.71247" lon="4.66577">
        <ele>426.7</ele>
        <time>1970-01-01T00:00:00Z</time>
      </trkpt>
      <trkpt lat="45.71346" lon="4.66558">
        <ele>428.2</ele>
        <time>1970-01-01T00:00:00Z</time>
      </trkpt>
      <trkpt lat="45.71504" lon="4.66478">
        <ele>433</ele>
        <time>1970-01-01T00:00:00Z</time>
      </trkpt>
      <trkpt lat="45.71577" lon="4.66411">
        <ele>436.3</ele>
        <time>1970-01-01T00:00:00Z</time>
      </trkpt>
      <trkpt lat="45.71667" lon="4.6621">
        <ele>441</ele>
        <time>1970-01-01T00:00:00Z</time>
      </trkpt>
      <trkpt lat="45.71557" lon="4.66041">
        <ele>456.1</ele>
        <time>1970-01-01T00:00:00Z</time>
      </trkpt>
      <trkpt lat="45.71339" lon="4.65855">
        <ele>498</ele>
        <time>1970-01-01T00:00:00Z</time>
      </trkpt>
      <trkpt lat="45.71338" lon="4.65749">
        <ele>502</ele>
        <time>1970-01-01T00:00:00Z</time>
      </trkpt>
      <trkpt lat="45.71331" lon="4.65686">
        <ele>502.4</ele>
        <time>1970-01-01T00:00:00Z</time>
      </trkpt>
      <trkpt lat="45.71377" lon="4.6559">
        <ele>484.1</ele>
        <time>1970-01-01T00:00:00Z</time>
      </trkpt>
      <trkpt lat="45.71378" lon="4.65523">
        <ele>480.6</ele>
        <time>1970-01-01T00:00:00Z</time>
      </trkpt>
      <trkpt lat="45.71442" lon="4.6551">
        <ele>457.9</ele>
        <time>1970-01-01T00:00:00Z</time>
      </trkpt>
      <trkpt lat="45.71436" lon="4.65419">
        <ele>459.1</ele>
        <time>1970-01-01T00:00:00Z</time>
      </trkpt>
      <trkpt lat="45.71357" lon="4.65346">
        <ele>491.9</ele>
        <time>1970-01-01T00:00:00Z</time>
      </trkpt>
      <trkpt lat="45.71399" lon="4.65304">
        <ele>483.3</ele>
        <time>1970-01-01T00:00:00Z</time>
      </trkpt>
      <trkpt lat="45.71422" lon="4.65132">
        <ele>507.6</ele>
        <time>1970-01-01T00:00:00Z</time>
      </trkpt>
      <trkpt lat="45.7154" lon="4.65133">
        <ele>470.2</ele>
        <time>1970-01-01T00:00:00Z</time>
      </trkpt>
      <trkpt lat="45.71667" lon="4.64974">
        <ele>447</ele>
        <time>1970-01-01T00:00:00Z</time>
      </trkpt>
      <trkpt lat="45.71706" lon="4.6496">
        <ele>435.6</ele>
        <time>1970-01-01T00:00:00Z</time>
      </trkpt>
      <trkpt lat="45.71734" lon="4.64922">
        <ele>429.3</ele>
        <time>1970-01-01T00:00:00Z</time>
      </trkpt>
      <trkpt lat="45.7173" lon="4.64725">
        <ele>415.7</ele>
        <time>1970-01-01T00:00:00Z</time>
      </trkpt>
      <trkpt lat="45.71767" lon="4.64696">
        <ele>409.4</ele>
        <time>1970-01-01T00:00:00Z</time>
      </trkpt>
      <trkpt lat="45.71754" lon="4.6462">
        <ele>421.8</ele>
        <time>1970-01-01T00:00:00Z</time>
      </trkpt>
      <trkpt lat="45.71832" lon="4.64573">
        <ele>407.3</ele>
        <time>1970-01-01T00:00:00Z</time>
      </trkpt>
      <trkpt lat="45.71887" lon="4.64587">
        <ele>390.2</ele>
        <time>1970-01-01T00:00:00Z</time>
      </trkpt>
      <trkpt lat="45.71918" lon="4.64537">
        <ele>384.8</ele>
        <time>1970-01-01T00:00:00Z</time>
      </trkpt>
      <trkpt lat="45.71918" lon="4.64537">
        <ele>384.8</ele>
        <time>1970-01-01T00:00:00Z</time>
      </trkpt>
      <trkpt lat="45.71949" lon="4.64507">
        <ele>378.2</ele>
        <time>1970-01-01T00:00:00Z</time>
      </trkpt>
      <trkpt lat="45.71991" lon="4.64493">
        <ele>371.6</ele>
        <time>1970-01-01T00:00:00Z</time>
      </trkpt>
      <trkpt lat="45.72038" lon="4.64479">
        <ele>364.8</ele>
        <time>1970-01-01T00:00:00Z</time>
      </trkpt>
      <trkpt lat="45.72073" lon="4.64496">
        <ele>368.2</ele>
        <time>1970-01-01T00:00:00Z</time>
      </trkpt>
      <trkpt lat="45.72104" lon="4.64451">
        <ele>374.8</ele>
        <time>1970-01-01T00:00:00Z</time>
      </trkpt>
      <trkpt lat="45.72112" lon="4.64341">
        <ele>379.9</ele>
        <time>1970-01-01T00:00:00Z</time>
      </trkpt>
      <trkpt lat="45.72252" lon="4.64233">
        <ele>406.3</ele>
        <time>1970-01-01T00:00:00Z</time>
      </trkpt>
      <trkpt lat="45.72431" lon="4.64221">
        <ele>434</ele>
        <time>1970-01-01T00:00:00Z</time>
      </trkpt>
      <trkpt lat="45.7249" lon="4.64153">
        <ele>436.1</ele>
        <time>1970-01-01T00:00:00Z</time>
      </trkpt>
      <trkpt lat="45.72565" lon="4.64121">
        <ele>442.1</ele>
        <time>1970-01-01T00:00:00Z</time>
      </trkpt>
      <trkpt lat="45.72603" lon="4.63993">
        <ele>452.1</ele>
        <time>1970-01-01T00:00:00Z</time>
      </trkpt>
      <trkpt lat="45.72527" lon="4.63927">
        <ele>447.2</ele>
        <time>1970-01-01T00:00:00Z</time>
      </trkpt>
      <trkpt lat="45.7251" lon="4.6384">
        <ele>450.8</ele>
        <time>1970-01-01T00:00:00Z</time>
      </trkpt>
      <trkpt lat="45.72546" lon="4.637">
        <ele>476.6</ele>
        <time>1970-01-01T00:00:00Z</time>
      </trkpt>
      <trkpt lat="45.72469" lon="4.637">
        <ele>468.5</ele>
        <time>1970-01-01T00:00:00Z</time>
      </trkpt>
      <trkpt lat="45.72353" lon="4.63597">
        <ele>468.7</ele>
        <time>1970-01-01T00:00:00Z</time>
      </trkpt>
      <trkpt lat="45.7227" lon="4.63488">
        <ele>470.5</ele>
        <time>1970-01-01T00:00:00Z</time>
      </trkpt>
      <trkpt lat="45.72295" lon="4.63348">
        <ele>461.4</ele>
        <time>1970-01-01T00:00:00Z</time>
      </trkpt>
      <trkpt lat="45.72328" lon="4.63318">
        <ele>460.2</ele>
        <time>1970-01-01T00:00:00Z</time>
      </trkpt>
      <trkpt lat="45.72369" lon="4.63355">
        <ele>471.1</ele>
        <time>1970-01-01T00:00:00Z</time>
      </trkpt>
      <trkpt lat="45.7243" lon="4.63326">
        <ele>478.2</ele>
        <time>1970-01-01T00:00:00Z</time>
      </trkpt>
      <trkpt lat="45.72431" lon="4.63381">
        <ele>486.3</ele>
        <time>1970-01-01T00:00:00Z</time>
      </trkpt>
      <trkpt lat="45.72504" lon="4.63341">
        <ele>495.1</ele>
        <time>1970-01-01T00:00:00Z</time>
      </trkpt>
      <trkpt lat="45.72564" lon="4.63375">
        <ele>512</ele>
        <time>1970-01-01T00:00:00Z</time>
      </trkpt>
      <trkpt lat="45.72649" lon="4.63217">
        <ele>521.5</ele>
        <time>1970-01-01T00:00:00Z</time>
      </trkpt>
      <trkpt lat="45.72772" lon="4.63144">
        <ele>534.3</ele>
        <time>1970-01-01T00:00:00Z</time>
      </trkpt>
      <trkpt lat="45.72838" lon="4.63127">
        <ele>543.4</ele>
        <time>1970-01-01T00:00:00Z</time>
      </trkpt>
      <trkpt lat="45.72899" lon="4.62973">
        <ele>547.2</ele>
        <time>1970-01-01T00:00:00Z</time>
      </trkpt>
      <trkpt lat="45.72985" lon="4.62921">
        <ele>565.8</ele>
        <time>1970-01-01T00:00:00Z</time>
      </trkpt>
      <trkpt lat="45.73113" lon="4.62985">
        <ele>589.1</ele>
        <time>1970-01-01T00:00:00Z</time>
      </trkpt>
      <trkpt lat="45.73172" lon="4.62937">
        <ele>599.7</ele>
        <time>1970-01-01T00:00:00Z</time>
      </trkpt>
      <trkpt lat="45.73233" lon="4.62641">
        <ele>590.6</ele>
        <time>1970-01-01T00:00:00Z</time>
      </trkpt>
      <trkpt lat="45.73287" lon="4.62533">
        <ele>596.9</ele>
        <time>1970-01-01T00:00:00Z</time>
      </trkpt>
      <trkpt lat="45.73275" lon="4.62499">
        <ele>594.1</ele>
        <time>1970-01-01T00:00:00Z</time>
      </trkpt>
      <trkpt lat="45.73251" lon="4.62443">
        <ele>584.9</ele>
        <time>1970-01-01T00:00:00Z</time>
      </trkpt>
      <trkpt lat="45.73252" lon="4.62363">
        <ele>581.2</ele>
        <time>1970-01-01T00:00:00Z</time>
      </trkpt>
      <trkpt lat="45.7324" lon="4.62137">
        <ele>581.1</ele>
        <time>1970-01-01T00:00:00Z</time>
      </trkpt>
      <trkpt lat="45.73267" lon="4.62047">
        <ele>600.5</ele>
        <time>1970-01-01T00:00:00Z</time>
      </trkpt>
      <trkpt lat="45.73235" lon="4.61765">
        <ele>610.7</ele>
        <time>1970-01-01T00:00:00Z</time>
      </trkpt>
      <trkpt lat="45.73289" lon="4.61621">
        <ele>621.2</ele>
        <time>1970-01-01T00:00:00Z</time>
      </trkpt>
      <trkpt lat="45.73312" lon="4.61732">
        <ele>642.1</ele>
        <time>1970-01-01T00:00:00Z</time>
      </trkpt>
      <trkpt lat="45.73409" lon="4.61388">
        <ele>681.6</ele>
        <time>1970-01-01T00:00:00Z</time>
      </trkpt>
      <trkpt lat="45.7323" lon="4.61344">
        <ele>650.1</ele>
        <time>1970-01-01T00:00:00Z</time>
      </trkpt>
      <trkpt lat="45.73202" lon="4.61032">
        <ele>701.2</ele>
        <time>1970-01-01T00:00:00Z</time>
      </trkpt>
      <trkpt lat="45.7318" lon="4.6108">
        <ele>694.6</ele>
        <time>1970-01-01T00:00:00Z</time>
      </trkpt>
      <trkpt lat="45.72945" lon="4.61113">
        <ele>705.2</ele>
        <time>1970-01-01T00:00:00Z</time>
      </trkpt>
      <trkpt lat="45.72782" lon="4.60911">
        <ele>732.7</ele>
        <time>1970-01-01T00:00:00Z</time>
      </trkpt>
      <trkpt lat="45.72648" lon="4.61009">
        <ele>722.1</ele>
        <time>1970-01-01T00:00:00Z</time>
      </trkpt>
      <trkpt lat="45.72638" lon="4.60862">
        <ele>726.4</ele>
        <time>1970-01-01T00:00:00Z</time>
      </trkpt>
      <trkpt lat="45.72724" lon="4.60811">
        <ele>748.6</ele>
        <time>1970-01-01T00:00:00Z</time>
      </trkpt>
      <trkpt lat="45.72912" lon="4.60837">
        <ele>760</ele>
        <time>1970-01-01T00:00:00Z</time>
      </trkpt>
      <trkpt lat="45.73009" lon="4.60871">
        <ele>763.5</ele>
        <time>1970-01-01T00:00:00Z</time>
      </trkpt>
      <trkpt lat="45.73063" lon="4.60752">
        <ele>751.9</ele>
        <time>1970-01-01T00:00:00Z</time>
      </trkpt>
      <trkpt lat="45.72887" lon="4.60354">
        <ele>800</ele>
        <time>1970-01-01T00:00:00Z</time>
      </trkpt>
      <trkpt lat="45.72728" lon="4.60189">
        <ele>817.3</ele>
        <time>1970-01-01T00:00:00Z</time>
      </trkpt>
      <trkpt lat="45.72786" lon="4.60088">
        <ele>832.3</ele>
        <time>1970-01-01T00:00:00Z</time>
      </trkpt>
      <trkpt lat="45.72602" lon="4.60086">
        <ele>826.6</ele>
        <time>1970-01-01T00:00:00Z</time>
      </trkpt>
      <trkpt lat="45.72345" lon="4.59905">
        <ele>796</ele>
        <time>1970-01-01T00:00:00Z</time>
      </trkpt>
      <trkpt lat="45.72306" lon="4.59721">
        <ele>805.3</ele>
        <time>1970-01-01T00:00:00Z</time>
      </trkpt>
      <trkpt lat="45.72274" lon="4.59646">
        <ele>803.2</ele>
        <time>1970-01-01T00:00:00Z</time>
      </trkpt>
      <trkpt lat="45.72307" lon="4.59471">
        <ele>825.4</ele>
        <time>1970-01-01T00:00:00Z</time>
      </trkpt>
      <trkpt lat="45.72277" lon="4.59292">
        <ele>826.5</ele>
        <time>1970-01-01T00:00:00Z</time>
      </trkpt>
      <trkpt lat="45.72173" lon="4.59136">
        <ele>833.9</ele>
        <time>1970-01-01T00:00:00Z</time>
      </trkpt>
      <trkpt lat="45.72037" lon="4.58899">
        <ele>840.9</ele>
        <time>1970-01-01T00:00:00Z</time>
      </trkpt>
      <trkpt lat="45.71751" lon="4.58568">
        <ele>815.2</ele>
        <time>1970-01-01T00:00:00Z</time>
      </trkpt>
      <trkpt lat="45.71549" lon="4.58372">
        <ele>842.9</ele>
        <time>1970-01-01T00:00:00Z</time>
      </trkpt>
      <trkpt lat="45.7148" lon="4.58349">
        <ele>843.7</ele>
        <time>1970-01-01T00:00:00Z</time>
      </trkpt>
      <trkpt lat="45.71446" lon="4.58434">
        <ele>851.6</ele>
        <time>1970-01-01T00:00:00Z</time>
      </trkpt>
      <trkpt lat="45.71286" lon="4.58585">
        <ele>843.4</ele>
        <time>1970-01-01T00:00:00Z</time>
      </trkpt>
      <trkpt lat="45.71227" lon="4.58778">
        <ele>816.2</ele>
        <time>1970-01-01T00:00:00Z</time>
      </trkpt>
      <trkpt lat="45.71116" lon="4.58848">
        <ele>781.3</ele>
        <time>1970-01-01T00:00:00Z</time>
      </trkpt>
      <trkpt lat="45.71037" lon="4.58955">
        <ele>743.7</ele>
        <time>1970-01-01T00:00:00Z</time>
      </trkpt>
      <trkpt lat="45.71147" lon="4.5905">
        <ele>757</ele>
        <time>1970-01-01T00:00:00Z</time>
      </trkpt>
      <trkpt lat="45.71092" lon="4.59063">
        <ele>739.2</ele>
        <time>1970-01-01T00:00:00Z</time>
      </trkpt>
      <trkpt lat="45.70877" lon="4.58827">
        <ele>703.6</ele>
        <time>1970-01-01T00:00:00Z</time>
      </trkpt>
      <trkpt lat="45.70785" lon="4.58905">
        <ele>705.7</ele>
        <time>1970-01-01T00:00:00Z</time>
      </trkpt>
      <trkpt lat="45.70823" lon="4.58741">
        <ele>705</ele>
        <time>1970-01-01T00:00:00Z</time>
      </trkpt>
      <trkpt lat="45.70779" lon="4.58747">
        <ele>708.2</ele>
        <time>1970-01-01T00:00:00Z</time>
      </trkpt>
      <trkpt lat="45.7073" lon="4.58908">
        <ele>719.2</ele>
        <time>1970-01-01T00:00:00Z</time>
      </trkpt>
      <trkpt lat="45.70784" lon="4.59054">
        <ele>711.6</ele>
        <time>1970-01-01T00:00:00Z</time>
      </trkpt>
      <trkpt lat="45.70767" lon="4.591">
        <ele>715.1</ele>
        <time>1970-01-01T00:00:00Z</time>
      </trkpt>
      <trkpt lat="45.70561" lon="4.59305">
        <ele>725.2</ele>
        <time>1970-01-01T00:00:00Z</time>
      </trkpt>
      <trkpt lat="45.70464" lon="4.59312">
        <ele>718.7</ele>
        <time>1970-01-01T00:00:00Z</time>
      </trkpt>
      <trkpt lat="45.70391" lon="4.59561">
        <ele>731.9</ele>
        <time>1970-01-01T00:00:00Z</time>
      </trkpt>
      <trkpt lat="45.70303" lon="4.59717">
        <ele>738.3</ele>
        <time>1970-01-01T00:00:00Z</time>
      </trkpt>
      <trkpt lat="45.7028" lon="4.59952">
        <ele>777.4</ele>
        <time>1970-01-01T00:00:00Z</time>
      </trkpt>
      <trkpt lat="45.70219" lon="4.60109">
        <ele>781.6</ele>
        <time>1970-01-01T00:00:00Z</time>
      </trkpt>
      <trkpt lat="45.70164" lon="4.60149">
        <ele>769.2</ele>
        <time>1970-01-01T00:00:00Z</time>
      </trkpt>
      <trkpt lat="45.7004" lon="4.60373">
        <ele>762</ele>
        <time>1970-01-01T00:00:00Z</time>
      </trkpt>
      <trkpt lat="45.70062" lon="4.60486">
        <ele>773.2</ele>
        <time>1970-01-01T00:00:00Z</time>
      </trkpt>
      <trkpt lat="45.70139" lon="4.60567">
        <ele>785.6</ele>
        <time>1970-01-01T00:00:00Z</time>
      </trkpt>
      <trkpt lat="45.70163" lon="4.60742">
        <ele>766</ele>
        <time>1970-01-01T00:00:00Z</time>
      </trkpt>
      <trkpt lat="45.70225" lon="4.6076">
        <ele>775</ele>
        <time>1970-01-01T00:00:00Z</time>
      </trkpt>
      <trkpt lat="45.70291" lon="4.60868">
        <ele>768.5</ele>
        <time>1970-01-01T00:00:00Z</time>
      </trkpt>
      <trkpt lat="45.70336" lon="4.61335">
        <ele>753.1</ele>
        <time>1970-01-01T00:00:00Z</time>
      </trkpt>
      <trkpt lat="45.70378" lon="4.61542">
        <ele>731.1</ele>
        <time>1970-01-01T00:00:00Z</time>
      </trkpt>
      <trkpt lat="45.70514" lon="4.61673">
        <ele>692</ele>
        <time>1970-01-01T00:00:00Z</time>
      </trkpt>
      <trkpt lat="45.70436" lon="4.62026">
        <ele>703.5</ele>
        <time>1970-01-01T00:00:00Z</time>
      </trkpt>
      <trkpt lat="45.70282" lon="4.62142">
        <ele>721.3</ele>
        <time>1970-01-01T00:00:00Z</time>
      </trkpt>
      <trkpt lat="45.70197" lon="4.62138">
        <ele>716.5</ele>
        <time>1970-01-01T00:00:00Z</time>
      </trkpt>
      <trkpt lat="45.7007" lon="4.62007">
        <ele>722.1</ele>
        <time>1970-01-01T00:00:00Z</time>
      </trkpt>
      <trkpt lat="45.7007" lon="4.62007">
        <ele>722.1</ele>
        <time>1970-01-01T00:00:00Z</time>
      </trkpt>
      <trkpt lat="45.70084" lon="4.62141">
        <ele>705.9</ele>
        <time>1970-01-01T00:00:00Z</time>
      </trkpt>
      <trkpt lat="45.70275" lon="4.62373">
        <ele>670.6</ele>
        <time>1970-01-01T00:00:00Z</time>
      </trkpt>
      <trkpt lat="45.7035" lon="4.62596">
        <ele>656.3</ele>
        <time>1970-01-01T00:00:00Z</time>
      </trkpt>
      <trkpt lat="45.70297" lon="4.62625">
        <ele>640.3</ele>
        <time>1970-01-01T00:00:00Z</time>
      </trkpt>
      <trkpt lat="45.70241" lon="4.62791">
        <ele>621.4</ele>
        <time>1970-01-01T00:00:00Z</time>
      </trkpt>
      <trkpt lat="45.70177" lon="4.62847">
        <ele>605.1</ele>
        <time>1970-01-01T00:00:00Z</time>
      </trkpt>
      <trkpt lat="45.70098" lon="4.62958">
        <ele>608</ele>
        <time>1970-01-01T00:00:00Z</time>
      </trkpt>
      <trkpt lat="45.69959" lon="4.63015">
        <ele>591.3</ele>
        <time>1970-01-01T00:00:00Z</time>
      </trkpt>
      <trkpt lat="45.69896" lon="4.63016">
        <ele>573.9</ele>
        <time>1970-01-01T00:00:00Z</time>
      </trkpt>
      <trkpt lat="45.69873" lon="4.62925">
        <ele>556.6</ele>
        <time>1970-01-01T00:00:00Z</time>
      </trkpt>
      <trkpt lat="45.69873" lon="4.62925">
        <ele>556.6</ele>
        <time>1970-01-01T00:00:00Z</time>
      </trkpt>
      <trkpt lat="45.69815" lon="4.62934">
        <ele>541</ele>
        <time>1970-01-01T00:00:00Z</time>
      </trkpt>
      <trkpt lat="45.69827" lon="4.63041">
        <ele>554.2</ele>
        <time>1970-01-01T00:00:00Z</time>
      </trkpt>
      <trkpt lat="45.69799" lon="4.6333">
        <ele>549.8</ele>
        <time>1970-01-01T00:00:00Z</time>
      </trkpt>
      <trkpt lat="45.69868" lon="4.63439">
        <ele>548.7</ele>
        <time>1970-01-01T00:00:00Z</time>
      </trkpt>
      <trkpt lat="45.69868" lon="4.63549">
        <ele>531</ele>
        <time>1970-01-01T00:00:00Z</time>
      </trkpt>
      <trkpt lat="45.69832" lon="4.63704">
        <ele>516.2</ele>
        <time>1970-01-01T00:00:00Z</time>
      </trkpt>
      <trkpt lat="45.69753" lon="4.63795">
        <ele>503.6</ele>
        <time>1970-01-01T00:00:00Z</time>
      </trkpt>
      <trkpt lat="45.6976" lon="4.63882">
        <ele>504.6</ele>
        <time>1970-01-01T00:00:00Z</time>
      </trkpt>
      <trkpt lat="45.69803" lon="4.63934">
        <ele>505.4</ele>
        <time>1970-01-01T00:00:00Z</time>
      </trkpt>
      <trkpt lat="45.69782" lon="4.6402">
        <ele>493.7</ele>
        <time>1970-01-01T00:00:00Z</time>
      </trkpt>
      <trkpt lat="45.69785" lon="4.64122">
        <ele>492.3</ele>
        <time>1970-01-01T00:00:00Z</time>
      </trkpt>
      <trkpt lat="45.6974" lon="4.64199">
        <ele>485.9</ele>
        <time>1970-01-01T00:00:00Z</time>
      </trkpt>
      <trkpt lat="45.69708" lon="4.64386">
        <ele>497.9</ele>
        <time>1970-01-01T00:00:00Z</time>
      </trkpt>
      <trkpt lat="45.69806" lon="4.64456">
        <ele>508.8</ele>
        <time>1970-01-01T00:00:00Z</time>
      </trkpt>
      <trkpt lat="45.69805" lon="4.64499">
        <ele>504.8</ele>
        <time>1970-01-01T00:00:00Z</time>
      </trkpt>
      <trkpt lat="45.69691" lon="4.64695">
        <ele>498.1</ele>
        <time>1970-01-01T00:00:00Z</time>
      </trkpt>
      <trkpt lat="45.69701" lon="4.64887">
        <ele>507.3</ele>
        <time>1970-01-01T00:00:00Z</time>
      </trkpt>
      <trkpt lat="45.69757" lon="4.65066">
        <ele>514.5</ele>
        <time>1970-01-01T00:00:00Z</time>
      </trkpt>
      <trkpt lat="45.69702" lon="4.65229">
        <ele>508.7</ele>
        <time>1970-01-01T00:00:00Z</time>
      </trkpt>
      <trkpt lat="45.69752" lon="4.65317">
        <ele>497.9</ele>
        <time>1970-01-01T00:00:00Z</time>
      </trkpt>
      <trkpt lat="45.69758" lon="4.6542">
        <ele>482.5</ele>
        <time>1970-01-01T00:00:00Z</time>
      </trkpt>
      <trkpt lat="45.698" lon="4.65559">
        <ele>465.4</ele>
        <time>1970-01-01T00:00:00Z</time>
      </trkpt>
      <trkpt lat="45.69817" lon="4.6563">
        <ele>455.9</ele>
        <time>1970-01-01T00:00:00Z</time>
      </trkpt>
      <trkpt lat="45.6986" lon="4.65687">
        <ele>448.2</ele>
        <time>1970-01-01T00:00:00Z</time>
      </trkpt>
      <trkpt lat="45.69888" lon="4.6568">
        <ele>447.6</ele>
        <time>1970-01-01T00:00:00Z</time>
      </trkpt>
      <trkpt lat="45.6988" lon="4.65915">
        <ele>427.5</ele>
        <time>1970-01-01T00:00:00Z</time>
      </trkpt>
      <trkpt lat="45.69854" lon="4.66271">
        <ele>404.9</ele>
        <time>1970-01-01T00:00:00Z</time>
      </trkpt>
      <trkpt lat="45.69759" lon="4.66601">
        <ele>401.1</ele>
        <time>1970-01-01T00:00:00Z</time>
      </trkpt>
      <trkpt lat="45.69729" lon="4.67388">
        <ele>364.1</ele>
        <time>1970-01-01T00:00:00Z</time>
      </trkpt>
      <trkpt lat="45.69793" lon="4.67461">
        <ele>362.9</ele>
        <time>1970-01-01T00:00:00Z</time>
      </trkpt>
      <trkpt lat="45.69739" lon="4.67694">
        <ele>350.1</ele>
        <time>1970-01-01T00:00:00Z</time>
      </trkpt>
      <trkpt lat="45.69734" lon="4.68581">
        <ele>320.2</ele>
        <time>1970-01-01T00:00:00Z</time>
      </trkpt>
      <trkpt lat="45.69885" lon="4.68729">
        <ele>317.5</ele>
        <time>1970-01-01T00:00:00Z</time>
      </trkpt>
    </trkseg>
  </trk>
</gpx>